GW6388 Weather Reports


Display with metric or nautical units.
time (UTC)temp
F
wind
direction
speed
MPH
gust
MPH
rain 1hr
in
rain 24hr
in
rain mn
in
humidity
%
barometer
mb
20260504022428 45 16 0.0 0.0 0.00 0.00 0.00 66 1096.4
20260504021925 45 28 0.0 0.0 0.00 0.00 0.00 69 1096.6
20260504021422 46 15 0.0 0.0 0.00 0.00 0.00 68 1096.3
20260504020920 46 351 0.0 0.0 0.00 0.00 0.00 65 1096.3
20260504020416 47 4 0.0 0.0 0.00 0.00 0.00 62 1096.3
20260504015913 47 17 0.0 0.0 0.00 0.00 0.00 60 1096.4
20260504015409 48 26 0.0 0.0 0.00 0.00 0.00 58 1096.2
20260504014905 48 25 0.0 0.0 0.00 0.00 0.00 58 1096.3
20260504014401 48 26 0.0 0.0 0.00 0.00 0.00 56 1096.3
20260504013858 49 14 0.0 0.0 0.00 0.00 0.00 56 1096.3
20260504013356 50 37 0.0 0.0 0.00 0.00 0.00 53 1096.3
20260504012853 50 37 0.0 0.0 0.00 0.00 0.00 53 1096.3
20260504012351 50 34 0.0 1.0 0.00 0.00 0.00 52 1096.2
20260504011848 51 34 0.0 0.0 0.00 0.00 0.00 52 1096.3
20260504011344 51 32 0.0 0.0 0.00 0.00 0.00 51 1096.3
20260504010840 52 30 0.0 0.0 0.00 0.00 0.00 53 1096.2
20260504010336 53 28 0.0 0.0 0.00 0.00 0.00 48 1096.1
20260504005833 53 27 0.0 1.0 0.00 0.00 0.00 48 1096.2
20260504005330 54 20 0.0 1.0 0.00 0.00 0.00 44 1096.4
20260504004827 54 358 0.0 1.0 0.00 0.00 0.00 44 1096.1
20260504004325 54 357 1.0 1.0 0.00 0.00 0.00 43 1096.0
20260504003821 55 332 2.0 2.0 0.00 0.00 0.00 43 1096.1
20260504003318 55 261 4.0 4.0 0.00 0.00 0.00 42 1095.9
20260504002814 55 222 2.0 3.0 0.00 0.00 0.00 42 1095.9
20260504002311 55 353 0.0 2.0 0.00 0.00 0.00 42 1096.1
20260504001809 55 17 1.0 3.0 0.00 0.00 0.00 42 1096.0
20260504001306 55 344 3.0 3.0 0.00 0.00 0.00 44 1096.1
20260504000803 56 0 2.0 3.0 0.00 0.00 0.00 41 1096.1
20260504000300 56 309 2.0 2.0 0.00 0.00 0.00 41 1096.0
20260503235758 56 244 3.0 3.0 0.00 0.00 0.00 41 1096.2
20260503235255 56 282 2.0 3.0 0.00 0.00 0.00 40 1096.2
20260503234753 56 219 4.0 4.0 0.00 0.00 0.00 40 1096.1
20260503234250 56 337 2.0 2.0 0.00 0.00 0.00 41 1096.0
20260503233747 57 14 2.0 4.0 0.00 0.00 0.00 40 1096.1
20260503233243 57 308 2.0 3.0 0.00 0.00 0.00 39 1096.0
20260503232740 57 171 2.0 6.0 0.00 0.00 0.00 39 1096.0
20260503232237 57 104 2.0 10.0 0.00 0.00 0.00 39 1096.1
20260503231736 57 245 3.0 4.0 0.00 0.00 0.00 38 1096.0
20260503231232 57 344 1.0 2.0 0.00 0.00 0.00 41 1096.1
20260503230728 58 16 0.0 6.0 0.00 0.00 0.00 38 1095.9
20260503230226 58 204 2.0 6.0 0.00 0.00 0.00 37 1096.2
20260503225723 58 317 3.0 7.0 0.00 0.00 0.00 37 1096.2
20260503225223 58 196 2.0 3.0 0.00 0.00 0.00 37 1096.0
20260503224720 58 284 3.0 7.0 0.00 0.00 0.00 37 1096.2
20260503224218 58 246 8.0 9.0 0.00 0.00 0.00 37 1096.2
20260503223715 58 28 1.0 4.0 0.00 0.00 0.00 38 1096.3
20260503223213 58 277 1.0 3.0 0.00 0.00 0.00 37 1096.1
20260503222709 58 36 1.0 3.0 0.00 0.00 0.00 39 1096.4
20260503222207 58 25 1.0 6.0 0.00 0.00 0.00 38 1096.2
20260503221705 58 316 2.0 4.0 0.00 0.00 0.00 36 1096.3
20260503221202 59 210 2.0 3.0 0.00 0.00 0.00 37 1096.1
20260503220659 59 315 4.0 6.0 0.00 0.00 0.00 36 1096.2
20260503220155 59 19 3.0 9.0 0.00 0.00 0.00 37 1096.2
20260503215653 59 188 2.0 7.0 0.00 0.00 0.00 35 1096.2
20260503215149 59 9 1.0 9.0 0.00 0.00 0.00 36 1096.3
20260503214649 59 269 2.0 4.0 0.00 0.00 0.00 35 1096.2
20260503214144 60 9 5.0 8.0 0.00 0.00 0.00 33 1096.2
20260503213643 60 119 9.0 13.0 0.00 0.00 0.00 34 1095.9
20260503213139 59 325 4.0 6.0 0.00 0.00 0.00 36 1096.0
20260503212636 59 303 1.0 9.0 0.00 0.00 0.00 36 1095.8
20260503212134 59 295 6.0 8.0 0.00 0.00 0.00 35 1096.2
20260503211633 59 206 5.0 11.0 0.00 0.00 0.00 34 1096.0
20260503211133 60 315 8.0 13.0 0.00 0.00 0.00 34 1096.1
20260503210629 59 29 1.0 8.0 0.00 0.00 0.00 36 1096.0
20260503210126 59 260 8.0 10.0 0.00 0.00 0.00 34 1096.1
20260503205622 59 253 8.0 10.0 0.00 0.00 0.00 35 1096.2
20260503205118 59 287 6.0 10.0 0.00 0.00 0.00 35 1096.3
20260503204615 59 234 6.0 8.0 0.00 0.00 0.00 36 1096.3
20260503204113 59 295 5.0 10.0 0.00 0.00 0.00 34 1096.3
20260503203610 59 314 3.0 7.0 0.00 0.00 0.00 35 1096.7
20260503203107 59 233 5.0 6.0 0.00 0.00 0.00 36 1096.4
20260503202604 60 317 7.0 11.0 0.00 0.00 0.00 34 1096.4
20260503202102 59 227 5.0 11.0 0.00 0.00 0.00 35 1096.8
20260503201600 59 161 6.0 10.0 0.00 0.00 0.00 36 1096.7
20260503201057 58 356 4.0 7.0 0.00 0.00 0.00 36 1096.7
20260503200553 58 69 2.0 8.0 0.00 0.00 0.00 37 1096.9
20260503200050 59 226 9.0 11.0 0.00 0.00 0.00 35 1096.8
20260503195547 59 260 6.0 10.0 0.00 0.00 0.00 34 1096.9
20260503195044 58 294 5.0 17.0 0.00 0.00 0.00 36 1097.2
20260503194541 58 332 1.0 10.0 0.00 0.00 0.00 35 1097.3
20260503194041 59 306 4.0 13.0 0.00 0.00 0.00 35 1097.2
20260503193538 58 267 6.0 15.0 0.00 0.00 0.00 34 1097.3
20260503193033 57 357 2.0 7.0 0.00 0.00 0.00 35 1097.3
20260503192530 59 222 8.0 13.0 0.00 0.00 0.00 34 1097.4
20260503192025 58 332 5.0 10.0 0.00 0.00 0.00 37 1097.5
20260503191522 58 274 8.0 10.0 0.00 0.00 0.00 34 1097.5
20260503191019 58 153 1.0 6.0 0.00 0.00 0.00 38 1097.8
20260503190516 59 233 8.0 14.0 0.00 0.00 0.00 36 1097.8
20260503190014 58 152 6.0 10.0 0.00 0.00 0.00 35 1097.6
20260503185510 59 255 7.0 15.0 0.00 0.00 0.00 36 1097.9
20260503185009 58 249 4.0 13.0 0.00 0.00 0.00 37 1097.9
20260503184506 57 321 7.0 18.0 0.00 0.00 0.00 37 1098.1
20260503184002 57 332 8.0 11.0 0.00 0.00 0.00 37 1098.4
20260503183459 57 272 9.0 14.0 0.00 0.00 0.00 37 1098.1
20260503182956 56 184 7.0 10.0 0.00 0.00 0.00 39 1098.2
20260503182455 56 293 6.0 11.0 0.00 0.00 0.00 39 1098.4
20260503181952 56 268 1.0 7.0 0.00 0.00 0.00 39 1098.4
20260503181449 57 146 10.0 14.0 0.00 0.00 0.00 38 1098.3
20260503180945 58 337 1.0 9.0 0.00 0.00 0.00 36 1098.3
20260503180443 58 179 4.0 8.0 0.00 0.00 0.00 37 1098.5
20260503175940 56 166 3.0 4.0 0.00 0.00 0.00 37 1098.3
20260503175438 56 282 14.0 21.0 0.00 0.00 0.00 36 1098.7
20260503174933 56 228 3.0 9.0 0.00 0.00 0.00 37 1098.7
20260503174432 56 278 5.0 8.0 0.00 0.00 0.00 40 1098.6
20260503173932 57 207 7.0 9.0 0.00 0.00 0.00 37 1098.7
20260503173428 56 197 5.0 7.0 0.00 0.00 0.00 37 1099.0
20260503172925 54 284 4.0 6.0 0.00 0.00 0.00 39 1099.0
20260503172422 55 207 13.0 15.0 0.00 0.00 0.00 36 1099.0
20260503171918 56 181 3.0 13.0 0.00 0.00 0.00 40 1099.1
20260503171415 55 332 12.0 16.0 0.00 0.00 0.00 36 1099.0
20260503170913 56 257 13.0 16.0 0.00 0.00 0.00 36 1099.2
20260503170409 55 95 4.0 9.0 0.00 0.00 0.00 37 1099.3
20260503150801 51 225 3.0 8.0 0.00 0.00 0.00 40 1100.1
20260503150257 51 295 4.0 7.0 0.00 0.00 0.00 41 1100.0
20260503140222 48 281 4.0 8.0 0.00 0.00 0.00 52 1100.4
20260503131151 44 285 7.0 10.0 0.00 0.00 0.00 62 1100.8
20260503130648 44 5 3.0 8.0 0.00 0.00 0.00 65 1100.9
20260503130146 44 277 5.0 8.0 0.00 0.00 0.00 65 1100.8
20260503120112 36 36 0.0 1.0 0.00 0.00 0.00 96 1100.4
20260503110539 31 27 0.0 0.0 0.00 0.00 0.00 96 1100.0
20260503090426 32 36 0.0 0.0 0.00 0.00 0.00 97 1099.3
20260503081352 32 17 0.0 0.0 0.00 0.00 0.00 96 1099.1
20260503080849 33 17 0.0 0.0 0.00 0.00 0.00 95 1099.5
20260503080346 33 12 0.0 0.0 0.00 0.00 0.00 95 1099.3
20260503072823 33 19 0.0 0.0 0.00 0.00 0.00 96 1099.1
20260503072319 33 19 0.0 0.0 0.00 0.00 0.00 96 1099.0
20260503071815 33 19 0.0 0.0 0.00 0.00 0.00 96 1099.2
20260503071313 33 19 0.0 0.0 0.00 0.00 0.00 96 1099.1
20260503070809 33 18 0.0 0.0 0.00 0.00 0.00 96 1098.9
20260503070307 33 18 0.0 0.0 0.00 0.00 0.00 96 1099.0
20260503060238 32 18 0.0 0.0 0.00 0.00 0.00 96 1099.1
20260503054725 33 17 0.0 0.0 0.00 0.00 0.00 96 1099.2
20260503054222 33 18 0.0 0.0 0.00 0.00 0.00 96 1099.2
20260503053720 32 21 0.0 0.0 0.00 0.00 0.00 95 1099.3
20260503053219 33 21 0.0 0.0 0.00 0.00 0.00 95 1099.3
20260503052714 33 21 0.0 0.0 0.00 0.00 0.00 95 1099.5
20260503052211 32 21 0.0 0.0 0.00 0.00 0.00 95 1099.3
20260503051706 32 20 0.0 1.0 0.00 0.00 0.00 95 1099.3
20260503051204 33 22 0.0 0.0 0.00 0.00 0.00 95 1099.3
20260503050700 33 20 0.0 0.0 0.00 0.00 0.00 95 1099.3
20260503050157 33 19 0.0 0.0 0.00 0.00 0.00 95 1099.4
20260503045655 33 10 0.0 1.0 0.00 0.00 0.00 95 1099.6
20260503045152 32 21 0.0 0.0 0.00 0.00 0.00 95 1099.3
20260503044648 32 20 0.0 0.0 0.00 0.00 0.00 95 1099.7
20260503044146 32 20 0.0 0.0 0.00 0.00 0.00 95 1099.6
20260503043642 32 20 0.0 0.0 0.00 0.00 0.00 94 1099.5
20260503043139 33 20 0.0 0.0 0.00 0.00 0.00 94 1099.4
20260503042636 34 0 1.0 1.0 0.00 0.00 0.00 95 1099.7
20260503042132 33 19 0.0 0.0 0.00 0.00 0.00 96 1099.5
20260503041629 32 12 0.0 0.0 0.00 0.00 0.00 95 1099.6
20260503041126 32 20 0.0 0.0 0.00 0.00 0.00 94 1099.6
20260503040624 33 15 0.0 0.0 0.00 0.00 0.00 94 1099.7
20260503040121 32 17 0.0 0.0 0.00 0.02 0.02 94 1099.7
20260503035617 32 12 0.0 0.0 0.00 0.02 0.02 94 1099.4
20260503035115 32 16 0.0 0.0 0.00 0.02 0.02 94 1099.6
20260503034612 32 18 0.0 1.0 0.00 0.02 0.02 93 1099.8
20260503034109 32 7 1.0 1.0 0.00 0.02 0.02 93 1099.6
20260503033607 33 7 0.0 1.0 0.00 0.02 0.02 93 1099.6
20260503033104 33 8 0.0 0.0 0.00 0.02 0.02 92 1099.6
20260503032602 33 358 1.0 1.0 0.00 0.02 0.02 92 1099.7
20260503032100 33 14 1.0 1.0 0.00 0.02 0.02 91 1099.6
20260503031558 33 12 0.0 1.0 0.00 0.02 0.02 90 1099.6
20260503031055 33 5 1.0 1.0 0.00 0.02 0.02 89 1099.6
20260503030550 35 16 0.0 1.0 0.00 0.02 0.02 88 1099.6
20260503030048 35 356 1.0 1.0 0.00 0.02 0.02 88 1099.7
20260503025545 35 359 1.0 1.0 0.00 0.02 0.02 86 1099.6
20260503025043 36 0 1.0 1.0 0.00 0.02 0.02 86 1099.8
20260503024538 36 342 0.0 1.0 0.00 0.02 0.02 86 1099.6
20260503024036 36 24 0.0 1.0 0.00 0.02 0.02 86 1099.6
20260503023532 37 2 0.0 1.0 0.00 0.02 0.02 85 1100.0
20260503023030 36 14 0.0 1.0 0.00 0.02 0.02 85 1099.7